This demonstration page uses our WeatherBlox Daily Observations layout. Learn more.

Left ArrowRight Arrow

Hourly Observations for May 20, 2022

Temp ( °F °C ) Dew Point ( °F °C ) Humidity (%) Winds ( mph kmh ) Pressure ( in mb ) Visibility ( mi km ) Precip ( " mm )
12:52 am 00:52 Clear 72 22.2 64 17.8 76 76 S 12 19 29.46 998 10 16 0.00 0.00
1:52 am 01:52 Clear 71 21.7 64 17.8 79 79 S 16 26 29.44 997 10 16 0.00 0.00
2:52 am 02:52 Clear 71 21.7 63 17.2 76 76 S 15 24 29.42 996 10 16 0.00 0.00
3:52 am 03:52 Clear 70 21.1 63 17.2 79 79 S 13 20 29.41 996 10 16 0.00 0.00
4:52 am 04:52 Clear 70 21.1 63 17.2 79 79 S 16 26 29.40 996 10 16 0.00 0.00
5:52 am 05:52 Clear 71 21.7 63 17.2 76 76 S 17 28 29.41 996 10 16 0.00 0.00
6:52 am 06:52 Sunny 72 22.2 63 17.2 73 73 S 17 28 29.42 996 10 16 0.00 0.00
7:52 am 07:52 Sunny 74 23.3 62 16.7 67 67 S 22 35 29.42 996 10 16 0.00 0.00
8:52 am 08:52 Sunny 76 24.4 62 16.7 62 62 S 22 35 29.43 997 10 16 0.00 0.00
9:52 am 09:52 Sunny 77 25 64 17.8 64 64 S 25 41 29.44 997 10 16 0.00 0.00
10:52 am 10:52 Sunny 81 27.2 67 19.4 62 62 SSW 16 26 29.49 999 10 16 0.00 0.00
11:52 am 11:52 Sunny 83 28.3 68 20 61 61 SSW 21 33 29.51 999 10 16 0.00 0.00
12:52 pm 12:52 Mostly Sunny 85 29.4 69 20.6 59 59 SSW 15 24 29.52 1000 10 16 0.00 0.00
1:52 pm 13:52 Mostly Cloudy 84 28.9 68 20 59 59 SSW 14 22 29.54 1000 10 16 0.00 0.00
2:52 pm 14:52 Partly Cloudy 85 29.4 68 20 57 57 SW 14 22 29.54 1001 10 16 0.00 0.00
3:52 pm 15:52 Mostly Cloudy 86 30 68 20 55 55 SW 14 22 29.55 1001 10 16 0.00 0.00
4:52 pm 16:52 Mostly Cloudy 83 28.3 69 20.6 63 63 WSW 12 19 29.57 1001 10 16 0.00 0.00
5:52 pm 17:52 Cloudy 82 27.8 69 20.6 65 65 SW 7 11 29.59 1002 10 16 0.00 0.00
6:52 pm 18:52 Cloudy 82 27.8 71 21.7 69 69 SSW 7 11 29.61 1003 10 16 0.00 0.00
7:52 pm 19:52 Cloudy 79 26.1 70 21.1 74 74 S 6 9 29.62 1003 10 16 0.00 0.00
8:52 pm 20:52 Mostly Clear 77 25 69 20.6 77 77 S 8 13 29.65 1004 10 16 0.00 0.00
9:52 pm 21:52 Partly Cloudy 78 25.6 68 20 71 71 S 14 22 29.67 1005 10 16 0.00 0.00
10:52 pm 22:52 Mostly Cloudy 77 25 68 20 74 74 S 8 13 29.69 1005 10 16 0.00 0.00
11:31 pm 23:31 Mostly Cloudy with Thunderstorms 74 23.3 68 20 82 82 NNW 8 13 29.69 1005 10 16 0.00 0.00
11:52 pm 23:52 Cloudy with Thunderstorms 72 22.2 69 20.6 91 91 N 10 17 29.70 1006 10 16 0.02 0.51

Powered by AerisWeather